This is the latest recevied weather packets stored in our database for station/object VK4AB-13. If no packets are shown the sender has not sent any weather packets the latest 10 day(s).
| Time | Temp. | Humidity | Pressure | Rain* | Wind** | Luminosity | Snow |
|---|---|---|---|---|---|---|---|
| 1777929528 | 17.78° C | 96% | 1017.3 hPa | 0.25 mm | - | 127 W/m² | - |
| 1777929518 | 17.22° C | 95% | 1017.2 hPa | 0.25 mm | - | 86 W/m² | - |
| 1777929228 | 17.78° C | 95% | 1017.3 hPa | 0.25 mm | - | 109 W/m² | - |
| 1777928928 | 17.22° C | 95% | 1017.2 hPa | 0.25 mm | - | 86 W/m² | - |
| 1777928628 | 17.22° C | 95% | 1017.2 hPa | 0.25 mm | - | 67 W/m² | - |
| 1777928028 | 17.22° C | 95% | 1017.1 hPa | 0 mm | - | 28 W/m² | - |
| 1777927428 | 17.22° C | 95% | 1017 hPa | 0 mm | - | 21 W/m² | - |
| 1777927128 | 17.22° C | 94% | 1016.9 hPa | 0 mm | - | 19 W/m² | - |
| 1777926528 | 17.22° C | 94% | 1017 hPa | 0 mm | - | 7 W/m² | - |
| 1777925028 | 17.22° C | 94% | 1016.8 hPa | 0 mm | - | 0 W/m² | - |
| 1777924428 | 17.22° C | 94% | 1016.8 hPa | 0 mm | - | 0 W/m² | - |
| 1777923228 | 16.67° C | 94% | 1016.3 hPa | 0 mm | - | 0 W/m² | - |
| 1777922928 | 17.22° C | 94% | 1016.4 hPa | 0 mm | - | 0 W/m² | - |
| 1777922628 | 17.22° C | 94% | 1016.2 hPa | 0 mm | - | 0 W/m² | - |
| 1777922328 | 17.22° C | 94% | 1016.2 hPa | 0 mm | - | 0 W/m² | - |
| 1777920403 | 17.22° C | 94% | 1016 hPa | 0 mm | - | 0 W/m² | - |
| 1777920228 | 17.22° C | 94% | 1016 hPa | 0 mm | - | 0 W/m² | - |
| 1777919928 | 17.22° C | 94% | 1016 hPa | 0 mm | - | 0 W/m² | - |
| 1777919683 | 17.22° C | 94% | 1016 hPa | 0 mm | - | 0 W/m² | - |
| 1777919628 | 17.22° C | 94% | 1016 hPa | 0 mm | - | 0 W/m² | - |
| 1777919328 | 17.22° C | 93% | 1016 hPa | 0 mm | - | 0 W/m² | - |
| 1777919150 | 17.22° C | 93% | 1015.8 hPa | 0 mm | - | 0 W/m² | - |
| 1777919028 | 17.22° C | 93% | 1016 hPa | 0 mm | - | 0 W/m² | - |
| 1777918728 | 17.22° C | 93% | 1015.9 hPa | 0 mm | - | 0 W/m² | - |
| 1777918428 | 17.22° C | 93% | 1015.8 hPa | 0 mm | - | 0 W/m² | - |
* Rain latest hour (hover to see other rain measurements)
** Current wind speed in m/s (hover to see current wind gust speed)